Volver al catálogo

CZ-3A DEB

ActivoHEO
NORAD 35548·DEBRIS·🇨🇳 China

Lanzado Feb 2, 2007 desde Xichang Satellite Launch Center

Loading…

Próximos Pases (próximas 24 horas)

TLE

EnvejeciendoSource: Space-Track

Época: Aug 31, 2026, 03:54 UTC

1 35548U 07003G   26243.16253453 -.00000248  00000-0 -53291-2 0  9999
2 35548  25.8528 247.4133 7518899 165.1391 348.5749  1.82984030118841

Sigue CZ-3A DEB en tiempo real con AllMySat

Download on the App Store